RH
7 5 6 4 5 4 6 14 27 41 42 43 44 54 58 43 36 29 25 25 33 37 25 22 23 25 26 28 33 32 38 46 57 69 76 70 62 61 60 56 48 42 35 30 45 67 80 85 80 81 82 77 79 79 83 89 86 80 72 70 69 69 68 65 62 58 56 55 57 58 61 65 64 63 57 54 49 42 43 46 42 30 21 19 18 16 14 13 13 13 14 14 15 18 23 27 28
7 5 6 3 7 3 11 22 25 42 50 47 39 47 52 37 37 28 20 30 45 44 26 21 21 23 23 27 37 48 52 56 66 74 84 71 49 43 37 32 31 32 30 30 51 72 71 83 92 79 74 74 78 82 84 86 82 75 69 66 63 62 62 60 59 55 52 51 50 50 53 54 57 64 58 47 43 41 41 45 50 46 34 25 21 19 17 15 14 14 15 16 20 22 25 29 30
6 5 6 4 7 2 12 16 16 41 48 48 52 46 37 29 21 19 33 45 44 28 16 20 27 37 42 48 56 65 64 66 71 69 79 73 46 33 28 24 29 34 36 40 51 66 65 73 92 80 69 67 71 81 83 82 78 72 66 62 59 57 56 55 54 52 49 48 48 48 47 47 56 67 66 55 46 42 41 41 45 50 45 34 26 21 18 16 15 14 16 20 25 25 26 28 28
5 6 6 5 7 4 8 11 13 29 39 48 60 55 34 19 7 24 51 40 22 13 23 36 48 67 67 71 75 73 67 61 55 47 58 66 53 33 22 21 33 43 47 64 65 75 84 80 92 85 69 61 62 75 80 76 73 68 63 57 55 53 51 52 50 50 48 47 48 49 48 49 58 62 65 70 62 50 46 45 44 47 49 45 39 30 21 16 16 15 18 23 24 25 25 26 26
6 6 6 5 6 7 10 20 16 10 37 56 61 68 35 6 12 33 41 20 13 26 51 59 64 78 72 72 74 71 70 66 46 29 32 37 39 31 29 30 37 47 49 68 76 79 91 88 85 75 62 58 59 67 70 67 64 62 59 55 53 52 50 49 49 48 47 47 48 48 48 48 55 58 61 67 64 59 55 51 49 47 48 49 49 43 31 20 16 17 20 23 22 23 24 24 26
6 6 6 7 6 7 7 14 18 16 38 41 39 49 21 14 28 25 18 12 26 57 83 76 70 76 69 66 62 57 61 70 55 32 25 22 32 40 52 55 53 66 60 58 73 83 90 92 78 69 68 59 57 64 64 59 56 54 53 51 50 53 53 52 51 48 48 48 49 48 47 47 54 61 61 61 61 65 65 61 57 53 50 48 47 46 38 25 18 18 21 22 23 24 25 25 27
6 7 6 7 6 6 6 4 22 43 37 12 8 17 21 33 26 15 13 19 49 85 97 80 72 71 63 61 56 51 45 48 45 32 24 24 39 49 56 61 62 78 79 64 70 81 87 93 76 69 73 59 63 73 67 58 57 58 54 54 54 56 55 54 54 50 50 48 48 47 47 49 53 57 59 62 63 66 68 69 68 65 61 54 49 46 42 31 20 20 22 24 27 29 30 30 29
5 7 6 6 7 5 7 5 17 36 23 4 7 17 30 26 9 14 18 38 77 92 90 83 78 70 61 59 54 51 43 34 28 24 20 25 37 43 43 46 56 69 77 71 67 73 77 86 69 57 67 68 79 81 67 61 67 72 66 64 63 60 53 52 55 52 50 48 46 45 45 49 50 53 59 61 60 62 65 67 70 73 72 67 62 56 51 42 27 21 23 27 32 34 36 36 35
6 6 6 6 7 6 6 7 9 11 7 5 9 14 16 7 9 23 33 62 91 91 87 83 78 73 65 59 56 50 45 37 26 22 21 28 34 37 39 36 46 61 70 68 67 72 71 75 64 56 65 74 80 74 68 69 74 78 76 72 65 65 61 53 54 54 53 49 47 44 45 49 49 50 54 54 56 59 61 61 63 68 71 72 71 68 65 59 44 29 26 33 36 38 39 40 40
7 5 7 6 5 7 5 7 8 3 6 8 7 7 3 10 27 41 64 84 89 93 89 79 74 70 62 58 58 51 47 42 31 27 23 28 38 36 34 35 44 56 66 67 66 70 70 68 61 56 61 74 76 62 70 83 85 82 80 80 74 74 75 62 57 60 58 53 50 48 47 50 50 48 48 49 50 53 55 57 57 59 61 64 67 70 71 68 61 47 35 36 40 42 42 43 44
7 7 6 6 6 5 6 13 11 3 7 7 4 5 7 26 45 58 81 90 88 92 86 80 76 67 61 56 55 51 46 41 34 32 24 29 52 46 26 34 50 54 59 63 63 63 65 66 61 59 61 78 77 58 70 92 95 87 81 87 85 78 76 69 66 68 67 64 61 60 56 54 54 50 52 52 51 50 50 51 51 52 52 54 58 63 68 67 66 60 48 41 44 47 47 47 47
7 8 7 6 7 5 7 14 10 5 6 10 10 5 19 42 60 75 81 85 89 87 81 78 73 67 63 56 54 50 42 39 37 35 30 33 49 48 28 32 52 54 48 54 69 67 60 69 71 66 63 70 77 74 79 90 94 89 85 85 83 76 73 72 74 76 76 77 75 71 66 64 66 64 62 60 56 53 49 47 48 48 47 47 50 54 61 65 65 62 55 49 49 53 53 51 48
9 7 8 7 6 7 7 7 6 7 6 19 19 9 39 57 66 86 85 85 86 79 76 72 68 65 60 56 54 48 42 41 40 38 43 45 38 38 31 28 45 51 39 43 66 66 59 79 79 63 62 62 75 89 84 89 92 88 88 83 79 77 78 80 81 83 83 83 79 75 70 68 73 76 78 74 64 58 53 49 47 45 45 46 48 51 57 63 67 66 61 57 55 57 58 55 53
11 7 10 7 7 8 5 8 5 10 21 26 13 17 65 72 67 84 83 83 81 75 71 66 63 60 57 54 52 48 43 39 40 46 54 54 37 30 29 27 39 46 40 39 50 61 70 82 74 63 69 68 78 89 83 92 95 86 87 82 79 79 82 87 85 86 86 82 77 74 71 68 70 74 82 86 80 68 56 53 49 44 44 47 49 53 59 62 67 69 68 66 63 61 61 60 60
11 9 11 7 10 7 6 11 -0 22 51 36 10 27 79 87 77 83 81 80 74 72 66 60 59 55 54 49 50 47 38 38 42 50 51 47 35 26 29 33 41 44 45 46 48 66 79 76 71 72 78 79 82 87 85 94 99 93 88 82 78 76 83 88 86 86 85 79 76 74 73 71 71 73 79 87 91 84 67 58 54 48 46 49 51 55 60 65 70 72 72 72 71 69 68 68 66
12 10 11 8 11 7 8 9 4 45 67 40 25 35 75 93 87 83 79 78 71 70 66 60 57 50 48 46 48 43 37 44 45 51 49 41 33 25 33 41 44 44 46 55 60 69 77 77 82 84 85 86 84 88 92 95 100 99 90 82 77 75 84 89 87 84 82 82 80 80 78 75 74 76 81 85 91 93 84 73 65 60 59 60 60 59 60 69 82 84 81 79 78 77 74 73 72
14 12 12 10 11 9 11 10 19 60 57 40 47 45 69 90 89 87 79 78 72 71 67 58 52 47 48 46 46 45 42 43 45 53 50 40 30 24 38 47 48 47 45 53 60 66 73 78 86 88 88 92 92 96 98 97 101 98 89 85 81 81 86 87 86 82 83 85 84 85 82 78 77 78 82 84 88 94 94 89 83 81 83 85 81 75 75 84 94 95 91 87 85 82 77 74 73
17 14 13 11 11 13 16 15 25 48 41 41 58 56 72 82 81 82 73 73 73 69 65 55 51 48 48 46 47 49 44 40 44 51 46 41 32 24 37 51 52 50 48 46 48 61 72 76 87 92 90 91 95 99 98 99 100 92 89 89 85 84 85 85 85 84 85 84 85 86 82 79 77 78 81 84 87 93 97 97 97 97 98 99 96 92 93 98 100 98 95 91 88 86 81 76 73
20 16 15 12 11 13 13 14 20 33 38 45 58 63 73 78 78 78 72 72 70 66 61 54 51 48 45 47 49 46 40 39 43 45 41 40 35 24 33 52 59 56 55 48 42 55 70 77 86 91 92 89 90 97 99 100 97 90 89 88 85 84 84 85 85 86 87 86 86 85 82 78 76 78 84 87 88 90 94 98 100 100 99 99 100 99 99 101 100 97 93 91 90 89 87 82 75
24 19 17 14 11 13 11 12 16 26 48 59 62 66 71 79 82 80 78 74 70 66 60 54 51 46 44 45 46 40 35 35 37 39 35 37 40 30 36 54 59 57 57 50 38 49 68 77 83 87 92 90 87 97 100 99 97 93 92 89 86 85 84 85 85 87 88 88 88 84 80 75 72 76 82 87 90 90 92 94 94 95 97 99 99 99 100 100 99 97 92 89 89 88 88 85 80
29 24 20 17 13 15 13 14 16 21 43 60 63 66 73 83 84 79 76 72 71 66 58 55 50 44 41 41 41 36 34 34 35 37 32 32 40 37 41 50 51 55 54 43 35 45 65 73 80 88 94 94 91 98 100 99 98 96 95 92 88 85 82 83 85 88 87 85 84 80 75 68 65 66 70 75 80 84 87 90 89 90 92 94 96 97 99 99 97 95 92 88 86 84 83 82 81
34 29 25 20 16 15 14 14 21 24 34 53 64 69 79 86 84 80 75 71 69 61 55 54 48 41 38 35 34 33 35 34 31 34 31 27 35 38 40 41 43 52 48 36 32 44 66 77 81 86 92 97 96 98 100 98 98 96 95 92 89 85 83 84 86 87 86 84 81 76 71 66 62 61 62 64 66 71 75 79 82 85 86 88 92 95 97 97 95 93 91 87 83 81 79 77 77
39 36 30 25 20 16 15 14 21 29 38 54 66 69 76 81 81 78 73 68 62 56 55 53 47 41 37 31 28 33 36 31 27 29 29 25 31 36 35 37 40 44 40 32 35 47 67 83 88 87 90 95 96 99 100 98 98 98 96 93 91 88 87 87 88 89 87 84 80 74 67 60 56 54 55 56 59 62 66 72 78 82 84 84 86 90 93 94 95 95 93 90 85 82 80 79 78
45 41 36 31 25 18 16 18 21 34 50 62 67 67 69 73 75 75 70 65 60 57 55 50 48 45 37 29 26 32 33 30 28 25 26 25 30 34 32 39 42 39 35 31 38 49 64 83 92 95 97 97 98 99 98 98 100 99 98 95 93 92 92 91 90 90 90 85 77 67 57 49 46 45 45 45 48 54 60 69 77 82 86 86 84 86 91 93 94 96 97 96 94 91 88 85 84
51 46 42 35 28 22 19 22 29 44 65 73 73 72 72 74 74 74 71 68 65 60 55 51 51 45 35 29 27 28 29 30 29 25 25 25 30 34 33 40 43 40 36 34 40 50 69 88 95 97 99 99 99 99 99 100 100 99 98 96 95 96 96 94 92 90 87 82 72 59 51 46 48 49 48 45 42 46 51 61 72 79 86 91 89 88 91 95 96 96 97 97 97 96 93 91 89
57 52 48 41 32 26 24 33 48 69 84 81 78 79 81 82 78 76 74 71 68 62 56 54 50 43 36 33 31 29 27 27 26 25 24 23 28 33 36 39 42 42 37 35 38 53 79 93 95 97 96 97 99 97 97 98 98 98 98 98 98 98 97 93 87 83 78 75 68 58 52 55 60 62 62 58 51 49 48 53 62 71 79 86 89 90 90 93 96 95 94 93 91 91 92 93 94
59 56 53 48 41 33 32 43 59 75 83 77 77 82 84 84 80 77 76 72 70 65 59 55 49 43 40 37 35 32 29 27 25 24 22 22 24 30 39 41 42 44 38 40 47 61 86 93 93 99 97 98 100 99 98 97 98 98 98 99 99 96 92 89 85 81 77 74 69 61 59 67 74 75 73 70 67 64 61 58 58 63 71 76 81 84 86 89 91 89 87 84 83 83 87 90 93
65 62 58 54 51 44 41 49 60 69 79 81 81 83 81 82 81 78 77 74 71 67 60 55 49 45 43 39 36 34 32 31 29 26 23 22 21 26 38 41 43 43 39 53 60 64 85 93 95 101 100 100 100 100 100 99 100 99 97 96 93 92 90 91 91 89 86 80 73 70 73 79 84 82 76 72 70 69 69 68 65 65 67 71 74 76 77 80 80 78 76 74 74 76 78 80 80
69 66 63 61 60 56 52 56 62 68 79 82 75 79 82 79 82 81 78 75 71 67 62 57 52 49 47 42 38 34 33 35 36 33 27 23 22 25 34 38 42 42 45 63 68 68 85 94 97 101 99 101 100 100 101 100 100 100 98 92 87 90 94 96 95 93 91 84 79 81 84 83 80 74 68 64 63 63 63 63 64 66 67 69 70 70 69 69 69 67 66 65 66 68 70 71 71
70 72 69 67 67 66 65 65 66 68 77 77 71 81 88 82 81 82 81 78 74 71 66 61 56 52 49 43 40 35 33 39 41 37 31 27 27 28 32 36 39 42 53 68 71 74 83 86 94 99 99 101 100 100 100 99 99 99 99 94 89 93 97 97 94 91 86 82 83 86 83 75 68 61 59 62 63 63 60 54 52 55 60 63 65 65 63 62 62 61 58 57 56 56 57 60 61
67 67 65 70 76 74 71 72 72 73 78 78 76 82 87 84 81 81 82 81 78 74 69 63 57 52 49 44 42 40 38 42 44 38 34 32 33 36 37 38 40 45 58 69 70 72 73 75 87 96 99 101 100 100 99 99 98 96 96 93 92 93 94 91 90 89 86 85 86 85 79 71 63 58 59 62 63 61 55 47 42 43 47 52 56 58 58 57 57 54 50 49 48 47 46 47 49
61 69 73 74 79 75 70 73 74 75 80 78 76 80 82 82 81 81 83 81 77 73 68 62 57 54 50 47 45 45 44 44 44 41 38 36 38 45 46 45 48 52 59 63 62 66 66 67 77 86 93 97 98 97 95 95 95 93 92 90 90 89 88 87 86 86 86 86 85 83 78 70 64 61 60 60 59 56 48 41 37 36 37 39 43 47 49 50 49 47 43 41 41 41 40 39 40
54 79 86 69 69 75 69 70 73 75 80 81 80 81 80 79 80 80 80 79 74 70 67 63 60 56 51 50 50 49 48 45 42 41 42 42 46 53 51 51 59 59 58 59 59 64 67 67 70 75 81 86 89 92 91 91 91 91 90 89 88 87 86 86 87 86 84 82 80 78 74 70 68 65 61 56 53 48 42 38 37 35 33 32 33 36 38 40 41 41 41 40 39 38 38 37 37
52 64 63 49 58 74 70 64 70 75 74 77 79 75 74 77 79 80 77 74 70 66 65 62 60 57 52 52 53 52 52 50 47 50 52 50 54 56 49 54 66 69 74 79 72 67 70 71 70 71 73 75 77 80 82 84 84 84 85 85 85 85 85 85 85 84 82 79 77 74 72 70 68 64 58 51 46 44 40 39 37 34 32 29 28 29 30 31 33 35 36 37 38 38 38 37 35
46 47 48 46 51 64 68 58 55 65 67 67 70 68 69 72 72 72 69 66 65 63 60 60 58 55 52 52 54 56 55 55 56 58 55 56 63 61 54 58 66 72 80 82 73 69 73 74 73 72 71 70 70 71 72 73 74 75 75 75 75 75 75 75 75 74 73 72 70 69 68 65 63 60 56 51 46 44 42 40 37 35 32 29 28 27 26 26 27 28 29 31 32 33 34 34 33
40 45 49 51 51 55 60 59 58 63 67 66 66 68 67 69 68 65 63 61 61 60 54 55 56 52 50 50 53 56 54 56 64 64 58 65 74 73 74 74 69 71 74 71 71 73 75 75 74 73 71 70 68 67 66 65 64 65 65 65 65 64 65 64 64 64 63 63 63 62 61 59 57 55 53 52 48 45 43 40 37 33 30 28 27 25 24 24 23 23 23 23 24 24 25 26 26
46 51 54 57 66 70 60 63 74 70 70 72 67 66 66 66 68 64 64 62 55 51 48 48 50 47 46 44 47 53 52 57 67 68 69 75 76 79 89 86 69 68 72 69 70 72 72 74 73 71 70 68 66 65 63 62 60 59 58 57 56 56 56 56 55 55 55 55 55 55 55 54 53 51 49 48 46 43 40 35 32 29 27 26 24 22 21 20 20 19 18 18 17 17 18 18 18
46 52 65 70 75 78 63 65 82 79 82 88 78 76 76 69 66 59 56 57 49 45 45 46 46 42 39 37 40 49 52 57 66 70 78 86 79 76 83 82 69 66 69 68 68 70 72 71 68 65 62 59 56 54 52 50 49 46 45 43 42 41 40 41 41 40 40 40 41 41 42 43 43 42 40 37 36 35 32 28 26 24 22 21 20 18 17 15 15 14 14 13 13 13 13 13 13
50 55 73 87 76 67 63 61 73 80 86 94 91 91 88 72 63 60 56 55 49 46 47 45 43 38 35 34 38 51 56 58 65 69 77 88 84 76 78 79 73 68 69 70 70 69 64 57 51 46 41 37 34 32 31 29 28 26 26 25 25 25 24 25 25 26 27 26 26 26 27 28 28 28 27 26 25 24 23 21 20 19 18 17 16 15 14 12 12 11 11 11 10 10 10 10 10
53 56 67 80 66 58 72 70 65 72 77 82 79 76 76 68 65 68 67 64 57 55 54 48 44 38 32 34 43 58 64 63 67 69 72 83 85 80 82 83 76 72 72 72 68 58 47 38 32 27 23 21 18 17 15 13 13 13 13 14 14 14 14 14 15 15 16 16 16 17 17 17 17 17 17 17 17 16 16 15 14 14 13 13 13 13 12 11 11 10 10 10 9 9 8 8 7
48 54 59 61 51 51 69 69 58 61 66 67 65 72 83 79 76 76 71 72 72 71 73 66 59 48 34 39 58 71 75 73 72 73 76 81 83 79 82 83 78 75 72 66 56 44 33 26 21 17 14 13 12 13 13 12 12 12 11 11 10 10 9 9 9 10 11 11 12 12 12 13 13 12 12 12 12 12 12 11 11 11 10 10 10 11 11 10 10 10 9 9 8 8 7 7 7
48 52 57 47 39 46 55 54 58 71 80 72 66 88 103 85 76 77 73 75 78 82 89 86 79 68 54 57 70 74 78 85 81 78 78 76 77 80 82 82 78 76 69 58 46 34 26 20 14 13 14 17 20 20 20 19 18 18 18 18 17 16 14 13 11 9 9 10 11 11 11 11 11 11 11 10 10 9 10 10 10 9 9 8 8 9 9 9 9 8 8 7 7 8 8 7 7
51 45 52 41 32 46 52 53 72 93 95 75 63 83 96 85 78 78 78 78 72 74 82 83 78 76 79 83 81 74 76 85 84 80 80 79 82 83 79 74 68 61 53 42 34 26 21 18 18 22 26 28 26 24 25 26 27 28 27 26 25 24 23 23 22 20 18 17 16 17 17 17 16 14 13 12 11 9 9 9 9 9 9 8 8 9 9 9 9 8 8 7 7 8 8 8 8
48 35 44 44 31 41 52 58 77 82 68 59 60 63 70 85 86 69 68 72 66 64 65 65 62 60 69 75 75 76 74 73 75 77 77 74 72 67 58 52 46 40 36 33 31 29 28 28 29 30 30 27 26 29 31 29 25 21 17 15 14 13 14 16 18 20 24 26 27 27 25 24 23 21 19 17 14 11 9 8 8 8 9 9 9 9 9 9 9 9 9 9 9 10 10 10 9
31 25 36 41 30 35 43 51 63 55 49 64 67 54 58 85 90 64 54 59 60 62 58 54 51 47 54 58 55 55 51 47 49 49 47 47 46 43 40 38 36 35 33 32 31 31 32 33 33 32 30 29 29 28 22 15 10 6 5 5 5 6 7 7 8 9 12 19 26 28 26 26 25 24 23 21 18 14 11 9 8 9 9 10 10 11 11 11 11 11 11 11 12 12 12 12 11
18 21 26 27 25 30 34 43 48 37 47 68 63 51 59 80 88 71 55 49 49 50 45 42 41 38 45 54 52 46 40 38 39 38 39 42 40 36 36 37 39 38 31 28 28 30 34 34 32 30 27 24 19 12 7 4 4 4 4 5 6 8 9 10 13 13 14 18 22 25 25 25 25 24 23 21 20 17 13 11 9 10 10 10 11 11 12 12 12 12 12 13 13 13 14 13 12
18 22 23 23 26 25 26 35 33 34 55 62 48 45 53 68 83 78 59 47 43 39 37 37 36 32 32 39 45 48 47 40 37 42 41 34 25 19 18 20 25 27 25 28 32 36 41 36 25 17 12 9 5 4 4 4 5 5 5 5 7 9 11 13 16 19 21 22 23 24 25 26 26 24 22 21 20 19 17 15 13 12 12 12 12 12 12 12 13 13 13 12 12 12 13 13 12
22 26 28 41 53 39 34 39 26 38 69 60 40 41 47 64 82 75 56 46 41 37 37 35 29 24 23 25 29 35 40 35 31 34 28 17 13 12 11 9 11 14 18 24 30 35 36 27 16 8 5 4 4 5 5 4 5 5 5 6 7 9 11 14 16 18 20 20 21 21 21 22 22 22 21 19 18 18 18 18 17 16 15 14 14 13 13 12 12 12 12 12 11 11 12 13 13
18 30 33 45 66 55 50 60 43 44 66 54 37 40 44 58 67 54 41 39 37 36 36 31 21 14 13 16 18 20 25 24 22 21 17 12 13 13 12 10 9 10 12 15 20 22 19 13 9 6 5 5 5 5 5 5 5 5 5 5 6 7 8 10 12 14 15 15 15 15 15 15 15 16 15 15 15 15 16 17 17 17 16 16 15 14 14 12 11 11 11 11 10 10 10 12 13
19 36 43 45 63 56 41 53 53 49 56 46 35 38 46 60 61 42 33 35 36 37 38 30 19 13 12 12 12 12 14 14 13 12 11 10 10 9 9 9 9 8 9 10 10 11 9 7 7 6 6 6 6 6 5 5 5 5 5 5 5 5 6 6 7 7 8 9 9 9 10 10 10 10 10 10 10 10 11 12 13 15 15 15 15 14 13 12 11 10 9 9 9 9 9 9 11
18 27 39 40 52 51 38 49 62 58 51 39 31 35 46 62 64 46 36 39 38 39 41 35 24 22 24 22 18 16 16 16 18 17 16 14 12 11 10 9 9 8 8 8 8 12 11 8 8 8 8 7 7 7 6 6 6 6 5 5 5 5 5 5 5 5 5 5 6 6 6 7 8 8 8 8 8 8 8 8 9 10 11 12 13 13 13 12 11 9 8 8 8 8 8 8 8
33 25 26 35 44 46 41 46 48 39 36 33 28 30 35 44 48 40 38 43 42 42 43 38 34 33 34 35 32 29 26 26 27 28 27 25 22 20 18 15 13 10 10 9 8 11 11 9 9 9 9 9 9 9 8 8 8 7 7 6 6 6 5 5 5 5 5 5 5 5 5 6 7 8 8 8 8 8 8 8 8 7 7 8 9 9 10 10 10 9 8 8 7 7 7 7 7
45 32 31 40 40 35 34 36 34 27 28 29 26 26 28 32 35 33 33 39 39 39 41 39 38 37 35 36 36 35 33 30 30 30 30 30 28 26 25 22 19 16 14 13 11 11 10 9 10 10 10 10 10 11 11 11 11 10 10 10 9 8 7 7 6 6 6 6 6 6 6 6 6 7 7 8 8 8 8 8 7 7 7 7 6 7 7 8 9 9 8 7 7 6 6 6 6
23 29 38 36 27 31 36 32 30 29 27 28 27 27 27 30 39 37 29 31 33 33 36 37 35 33 33 33 32 32 33 31 31 28 25 26 26 24 24 23 24 23 20 19 17 15 14 14 13 12 11 11 10 11 11 12 12 12 13 13 13 12 10 9 8 8 7 7 7 7 7 6 6 6 6 7 7 7 7 7 6 6 6 6 6 5 5 6 6 7 7 7 6 6 6 5 6
16 22 31 25 24 41 48 36 27 23 23 25 27 30 29 29 37 34 24 27 30 30 33 33 31 30 30 28 25 24 26 27 26 23 20 21 21 21 20 20 21 23 23 22 20 18 18 19 21 21 17 13 12 12 12 13 14 14 14 14 15 15 14 13 11 9 9 9 9 9 9 8 8 7 6 7 7 8 7 7 7 8 7 7 6 5 5 5 5 6 6 6 5 5 5 5 5
22 20 24 23 26 35 38 31 27 23 20 19 20 26 32 35 37 32 26 29 29 30 35 35 34 34 30 27 25 21 20 20 20 21 22 22 21 20 19 16 15 16 18 20 20 19 18 19 26 30 25 18 16 15 14 14 15 15 15 15 16 17 17 16 15 12 11 11 11 12 12 12 11 9 7 7 7 8 7 8 11 13 12 11 9 8 8 6 5 5 5 5 6 5 5 5 5
16 18 21 23 28 32 30 26 27 27 22 19 18 20 27 38 43 39 32 33 34 36 40 40 38 38 35 32 27 22 20 19 19 21 22 24 26 23 18 14 11 11 12 13 15 17 16 17 23 27 27 24 21 20 18 16 16 16 15 15 16 17 18 19 18 17 14 13 13 15 15 15 15 13 10 7 7 8 7 10 17 21 20 17 15 14 13 11 9 7 6 6 6 6 7 8 8
10 12 14 18 24 27 26 20 19 22 20 16 14 18 29 40 47 49 38 30 30 31 35 39 38 40 44 44 40 34 27 21 20 22 26 30 29 24 19 15 11 10 10 11 13 14 16 19 20 22 27 30 25 22 23 21 18 17 17 17 17 17 18 19 20 20 19 16 15 16 17 18 19 18 14 9 7 7 7 10 19 26 26 23 21 19 17 15 13 10 10 10 10 11 11 11 11
Wind_Speed
13 13 12 12 12 12 12 10 11 13 12 13 15 14 16 16 15 16 18 18 17 20 21 18 17 18 15 13 13 12 12 12 11 8 5 4 5 6 9 11 10 8 8 7 7 5 4 7 9 11 13 13 13 13 15 16 14 13 12 10 9 8 8 8 8 8 8 9 9 9 9 9 10 10 10 10 10 9 8 8 7 6 6 7 7 8 8 7 7 7 7 7 7 6 5 3 2
14 13 12 12 12 12 12 11 12 14 13 14 15 16 17 15 16 17 17 17 16 17 16 14 14 13 11 9 9 8 8 9 9 7 7 6 4 5 7 8 6 6 6 6 6 4 3 3 6 9 8 9 10 12 15 16 15 13 12 11 9 9 8 9 9 9 9 9 10 10 10 10 10 10 10 9 9 9 8 8 8 9 8 8 8 8 8 8 8 8 8 9 9 8 8 6 5
13 13 12 11 12 11 13 13 12 14 14 14 14 16 18 18 20 17 15 17 16 14 12 10 8 7 6 6 6 5 5 5 5 5 7 9 7 6 6 6 6 6 8 8 6 4 4 4 7 8 4 3 4 10 15 15 15 14 13 12 11 10 9 9 10 10 11 11 10 10 11 11 10 9 9 8 9 9 9 8 8 9 10 9 9 8 9 9 9 9 9 10 10 10 10 9 8
12 12 11 11 11 11 13 13 13 15 13 13 14 15 19 23 22 15 14 17 13 10 7 5 3 2 1 2 4 5 5 5 5 4 6 9 8 6 6 7 7 8 9 8 6 4 6 7 7 5 3 1 2 7 13 16 15 15 14 14 13 12 11 11 12 12 11 11 10 10 10 10 10 9 8 8 10 10 9 9 9 9 10 11 10 9 9 9 9 9 10 10 10 10 9 9 8
9 10 9 9 11 11 12 11 13 13 11 13 13 14 18 22 20 14 15 14 9 6 3 2 3 5 4 2 2 5 7 8 5 2 3 5 5 6 8 9 8 8 6 6 4 4 6 8 5 5 4 2 2 5 11 15 15 15 15 15 15 15 14 13 13 12 12 10 10 9 9 10 9 9 8 8 10 11 11 11 11 11 10 11 11 11 10 10 10 10 10 9 9 9 9 8 8
7 8 8 9 11 11 11 11 13 13 14 14 15 15 15 16 15 13 14 10 6 3 3 4 6 7 6 5 3 3 6 8 7 3 3 3 4 6 8 9 8 8 6 5 5 7 6 6 5 5 5 3 3 5 10 13 14 15 16 17 17 16 15 14 13 12 12 11 10 9 9 9 9 8 8 8 9 10 12 13 13 12 12 11 11 11 11 12 12 12 11 10 9 8 8 8 8
7 8 8 9 11 11 12 13 13 14 16 15 18 18 15 14 12 11 12 9 7 5 6 7 9 8 6 5 3 2 2 3 5 4 3 5 6 8 8 8 8 8 7 5 5 8 6 2 4 5 6 4 5 7 9 11 13 15 16 17 16 16 16 14 13 13 12 11 10 9 9 9 8 7 7 8 9 10 11 12 13 13 13 13 13 12 12 12 12 13 12 11 10 9 8 8 9
8 9 8 10 11 11 12 13 13 15 16 16 18 18 15 12 10 11 10 10 9 8 9 9 10 7 6 5 1 1 2 2 3 4 5 6 7 8 8 9 9 9 8 7 5 6 6 3 2 2 3 5 7 9 8 9 13 16 15 15 15 15 16 15 13 12 12 11 11 10 10 9 8 8 7 9 10 10 9 10 11 12 13 14 15 15 15 14 13 13 13 12 11 10 10 9 9
9 10 9 10 11 11 13 13 15 17 16 16 17 17 13 9 9 11 11 12 12 12 12 11 11 8 5 3 1 2 3 4 4 6 7 6 8 9 10 11 10 9 8 7 5 3 5 6 5 3 3 6 7 8 8 10 14 16 15 15 16 14 14 15 13 12 11 11 12 11 11 9 8 8 8 10 10 10 9 9 10 11 12 13 14 16 17 17 16 14 14 13 12 11 11 11 11
9 11 10 10 12 12 13 14 16 17 15 15 16 14 10 9 12 12 13 13 13 14 15 13 12 10 6 2 1 3 4 5 6 7 7 7 8 9 11 11 10 10 9 7 5 3 4 5 5 4 5 7 8 9 11 13 16 18 16 15 15 14 13 14 12 11 10 10 10 10 10 9 9 9 9 10 11 11 10 10 10 10 11 12 13 14 16 18 18 17 15 13 12 12 11 11 12
10 11 11 11 12 12 13 15 16 16 15 14 13 10 10 13 14 13 14 13 13 14 15 14 12 11 8 4 3 5 6 7 7 8 6 6 6 7 9 11 10 9 10 8 4 3 6 7 6 5 6 7 9 11 13 16 17 19 17 15 15 15 13 12 11 10 9 8 7 7 8 8 9 9 9 10 10 11 11 10 10 11 11 11 12 13 15 17 18 19 17 13 12 11 11 12 12
10 11 12 12 12 13 14 15 15 15 15 13 10 10 14 15 15 15 15 14 14 14 13 12 11 10 7 4 4 6 7 8 9 9 7 5 5 5 6 8 9 9 10 7 2 4 8 9 7 7 8 9 10 11 14 17 18 19 18 16 14 14 13 12 11 9 8 6 5 5 6 6 7 8 8 9 11 11 11 10 10 11 11 11 11 13 14 16 17 18 16 15 13 12 12 12 12
11 12 12 13 12 13 14 14 14 14 13 12 10 13 16 15 15 16 16 15 15 13 12 12 11 9 7 5 5 6 7 9 11 10 7 6 5 4 4 6 7 8 9 7 5 7 9 8 7 10 11 10 11 11 14 18 20 20 18 16 14 13 13 12 10 8 7 5 4 4 5 5 5 5 7 9 12 12 11 11 11 11 10 10 10 11 13 15 16 17 16 15 15 15 15 14 13
12 12 13 13 12 13 13 13 13 12 12 12 11 15 17 14 14 14 14 15 14 12 11 12 12 9 7 6 5 7 8 10 12 10 8 7 6 3 3 4 5 5 6 6 6 8 9 8 9 11 11 10 12 13 15 18 19 20 17 15 14 13 12 11 9 7 6 5 4 4 4 4 4 4 5 8 12 12 12 11 11 11 10 10 10 11 12 14 15 16 16 16 15 16 16 15 14
13 13 14 13 12 13 13 13 13 11 12 12 11 16 17 15 14 14 13 13 12 11 10 10 10 8 8 7 6 9 11 12 12 9 6 6 6 3 2 3 3 5 5 5 5 7 9 9 11 12 11 11 12 14 16 16 18 20 17 15 14 12 11 10 9 8 7 6 5 4 3 3 3 3 4 6 10 12 13 11 11 11 11 11 11 11 13 14 15 16 16 15 14 14 14 13 12
14 14 14 13 13 13 13 13 12 11 13 12 12 17 18 17 17 15 14 12 11 11 11 11 11 11 10 9 9 11 14 13 10 9 7 5 5 4 2 3 4 5 6 5 4 7 11 11 12 14 13 12 13 14 15 15 17 19 16 15 14 12 11 10 9 8 7 6 5 4 4 3 3 3 3 4 7 10 12 12 12 12 12 13 13 13 14 16 16 16 15 13 12 12 12 11 10
15 15 14 14 14 14 14 14 13 14 14 13 14 17 18 18 19 18 16 15 14 14 15 15 14 12 10 11 11 11 14 13 9 9 8 5 4 3 2 3 4 5 7 6 4 5 9 11 13 15 15 16 16 13 13 15 17 17 15 15 14 13 12 10 10 9 8 7 6 6 5 5 4 4 3 4 5 7 10 12 12 12 12 13 14 14 15 16 15 14 13 11 11 10 10 9 8
16 16 15 14 15 15 16 16 16 16 15 15 15 17 18 19 20 19 18 17 17 17 16 15 12 11 10 11 10 10 14 14 10 8 6 4 3 2 1 2 3 3 6 7 7 5 7 10 13 15 19 20 18 13 13 19 19 17 15 14 14 13 12 11 10 9 9 9 8 8 8 7 7 6 6 5 5 7 9 10 11 11 11 12 14 15 15 14 13 11 11 11 10 9 8 8 8
17 17 15 15 17 18 17 17 17 16 17 17 17 17 18 18 19 18 18 17 17 16 14 13 11 11 10 9 10 11 14 13 10 8 5 4 3 1 1 1 1 3 6 8 10 7 6 8 10 14 19 23 21 14 16 24 22 17 15 14 14 13 13 12 11 10 10 10 9 9 9 9 9 9 8 7 7 8 9 10 11 11 10 11 13 14 14 13 12 11 10 10 10 10 9 9 9
17 17 16 17 18 18 18 18 18 18 19 19 18 18 18 18 18 18 17 17 16 15 13 13 11 10 9 9 10 13 15 11 10 9 6 5 4 1 0 2 3 4 6 8 9 8 5 4 6 13 18 22 21 16 21 27 23 19 17 16 15 14 14 13 12 11 11 11 10 10 11 11 11 10 10 9 9 9 9 10 11 11 11 12 12 12 12 12 11 11 11 10 10 10 10 10 11
17 17 18 19 19 19 19 19 19 19 19 19 19 19 19 19 19 18 18 16 16 15 14 12 11 10 9 9 10 13 15 11 9 9 6 5 4 4 3 3 4 4 5 7 7 7 4 2 4 12 18 20 20 20 25 27 22 20 19 18 16 15 14 13 13 12 12 12 11 12 12 12 12 12 12 12 11 11 10 10 11 11 11 12 12 11 11 11 11 11 11 11 11 11 11 11 11
15 17 17 18 19 20 20 19 20 21 20 20 20 20 20 20 19 19 18 17 16 15 14 13 12 10 8 9 11 12 13 10 9 8 6 6 4 4 4 4 4 4 4 5 5 4 3 2 5 10 14 16 18 20 24 23 20 19 18 17 15 14 14 13 13 13 13 13 12 13 13 13 13 13 13 13 13 12 12 12 12 12 12 13 12 12 12 12 13 13 13 13 13 12 12 12 12
14 15 15 16 17 18 19 19 21 22 22 21 20 20 20 20 20 19 19 18 17 15 14 13 12 10 9 9 10 10 11 9 7 7 7 6 5 5 6 5 4 5 5 4 4 3 2 3 4 8 11 15 18 20 20 19 18 17 16 15 14 14 14 13 13 13 13 13 13 13 14 14 14 13 14 14 13 13 13 12 13 13 13 13 13 13 13 13 14 14 15 15 15 14 14 14 14
12 12 13 15 16 17 18 20 22 23 23 22 20 20 20 20 20 19 19 18 16 15 14 14 12 11 10 10 10 10 11 9 7 7 6 6 6 6 8 7 4 5 5 3 3 2 0 0 3 7 10 13 16 17 17 17 17 15 15 14 14 14 14 14 14 14 14 14 14 15 15 16 15 15 15 15 15 14 14 13 13 13 13 13 14 14 13 13 14 14 15 16 15 15 15 15 15
10 11 12 13 14 16 18 20 23 24 23 22 21 20 19 19 19 19 18 17 16 15 15 15 13 13 12 12 12 12 12 13 11 10 8 7 7 8 9 8 6 5 4 3 3 2 1 2 3 6 8 10 11 11 13 14 14 14 15 15 15 15 15 15 15 15 15 16 16 16 17 17 17 16 16 16 16 16 15 14 14 13 13 13 14 15 14 14 14 14 15 15 16 16 16 17 16
9 10 11 12 13 15 18 21 23 24 24 23 23 23 22 21 19 19 18 17 16 16 15 15 15 15 14 14 14 14 14 15 15 13 10 8 8 9 10 8 7 6 4 4 4 3 2 4 6 7 8 8 8 10 11 12 13 15 15 16 16 16 16 16 17 17 18 18 18 18 18 18 18 18 17 16 16 16 16 15 15 15 14 13 13 14 15 14 14 14 15 15 16 16 17 17 17
8 9 10 12 13 14 18 21 24 25 25 24 24 25 24 23 21 20 19 18 17 17 17 17 17 17 17 16 16 16 15 15 15 14 12 10 9 10 10 10 9 7 6 5 5 5 5 7 7 8 9 9 10 11 12 13 14 15 16 17 17 17 17 17 18 19 20 20 20 20 20 20 19 19 18 17 16 16 16 16 16 16 16 15 15 15 15 15 15 15 16 16 16 16 16 17 17
7 8 10 11 12 13 16 20 23 25 25 24 24 23 22 22 22 21 21 20 19 19 19 19 19 19 18 18 17 16 14 13 13 13 13 12 11 11 12 11 10 9 7 6 7 7 7 9 9 9 9 10 11 12 13 14 15 16 17 17 18 18 17 18 19 20 21 22 22 21 21 20 20 20 19 18 16 16 16 17 18 18 18 18 17 16 16 16 16 17 17 17 17 17 17 17 17
7 7 10 11 11 13 15 17 20 22 24 24 21 20 21 22 21 22 22 21 20 20 20 20 20 20 19 18 17 16 14 12 11 11 12 12 12 12 13 13 11 11 8 8 9 8 9 10 11 11 11 11 11 12 13 15 15 16 17 18 19 19 18 19 20 21 22 23 22 22 21 21 21 20 19 18 16 16 18 19 20 20 21 20 20 19 19 18 18 18 19 19 19 19 19 19 20
7 8 10 10 11 12 14 15 17 19 20 21 20 20 22 22 22 22 21 21 22 21 21 21 21 20 19 19 17 16 14 12 10 10 11 12 12 13 14 14 13 12 10 9 10 10 11 12 12 13 13 13 13 14 16 16 17 18 18 19 20 21 21 20 20 21 23 23 23 22 22 22 22 21 20 19 18 19 20 21 22 22 23 23 23 22 22 21 21 21 21 21 21 21 21 21 22
8 9 11 11 11 12 13 13 14 15 17 19 20 20 21 21 20 21 21 21 22 22 22 21 20 20 20 19 18 16 15 12 11 12 12 13 13 14 15 15 14 13 11 11 12 12 13 14 13 14 14 15 16 16 17 17 18 18 19 20 21 22 22 22 22 22 23 24 24 23 23 23 23 23 23 23 24 24 24 23 23 23 24 24 24 25 25 25 25 25 24 24 24 24 24 24 24
7 8 11 13 11 12 13 12 12 13 14 16 17 20 22 20 20 20 20 21 21 21 20 20 20 20 21 20 19 18 17 15 13 13 14 14 14 15 15 14 14 14 14 14 14 14 15 15 15 16 16 17 18 18 18 19 19 19 20 20 21 22 23 23 22 22 24 25 25 25 25 25 24 25 26 28 28 28 27 25 25 25 25 25 26 26 27 27 27 27 27 26 26 26 26 26 26
6 8 11 12 11 13 13 12 12 13 14 15 15 17 18 17 17 17 17 17 17 17 17 18 19 20 21 20 19 19 19 19 17 15 15 16 17 17 16 15 14 15 15 15 14 15 15 16 17 18 18 19 20 21 21 22 22 22 22 23 23 24 24 24 24 24 24 25 27 27 27 26 27 28 29 30 31 30 29 28 27 26 26 26 27 27 28 29 29 28 28 28 28 28 28 28 28
5 7 10 11 12 11 9 10 11 12 13 14 15 16 15 14 14 14 13 13 13 13 14 15 17 19 20 20 20 20 20 19 19 17 16 17 19 19 18 16 16 15 14 14 15 16 17 18 19 19 21 22 22 23 24 24 24 24 25 26 26 27 27 27 27 28 28 28 28 29 29 30 31 32 33 33 33 32 31 31 29 28 28 28 28 28 29 29 29 29 29 29 29 29 29 29 29
3 4 5 8 11 9 8 10 11 12 12 12 13 14 13 12 12 11 12 12 12 13 13 14 16 19 20 20 20 21 20 20 19 19 18 19 20 21 20 19 18 17 17 17 18 19 19 20 20 21 22 23 24 24 24 24 25 25 26 27 28 28 29 29 30 30 31 31 32 33 34 34 35 35 35 35 36 36 34 33 32 31 30 30 30 30 30 30 30 30 30 30 30 31 31 31 31
4 3 1 3 7 7 8 11 12 12 12 12 12 12 12 11 11 12 13 14 16 16 15 15 17 19 21 21 20 21 22 21 20 20 21 21 21 20 20 19 19 19 20 20 20 20 21 22 22 22 22 23 24 24 25 25 26 26 27 27 28 29 29 30 31 32 32 33 34 35 36 36 37 37 36 36 37 37 36 35 34 33 32 31 31 31 31 31 31 31 31 31 31 32 32 32 32
6 5 4 3 3 6 8 9 11 12 12 12 13 12 13 12 13 14 15 17 18 19 18 18 19 20 22 23 21 21 23 22 20 21 21 22 22 21 20 20 19 20 21 21 21 22 22 22 22 22 22 22 23 24 25 26 26 27 27 27 28 29 30 30 31 32 32 33 34 35 36 37 37 36 36 36 36 37 37 36 35 35 34 33 32 32 31 31 31 32 32 32 32 32 32 32 32
7 6 5 5 5 6 7 6 8 9 9 11 12 12 13 13 14 15 15 17 18 18 18 19 21 22 23 24 22 21 22 22 21 21 21 22 23 23 22 22 22 21 22 22 22 22 22 21 21 21 22 22 23 24 24 25 26 26 27 28 29 29 30 31 31 31 32 32 32 33 35 36 36 36 35 35 35 36 36 36 36 36 35 35 34 33 32 31 31 32 32 31 31 30 30 31 31
8 6 5 5 9 9 6 4 4 3 3 6 8 9 11 12 12 13 14 15 16 17 18 20 22 24 25 24 22 21 22 22 22 22 22 22 24 23 21 22 23 23 22 22 21 20 20 20 20 21 21 22 23 23 24 24 25 26 28 29 30 31 31 31 32 32 32 32 33 33 34 35 35 35 35 35 35 35 36 36 36 37 36 36 36 35 33 31 30 30 30 30 29 29 29 29 29
8 7 6 5 8 9 5 4 3 2 1 2 3 3 5 7 7 8 9 11 12 13 16 18 21 23 25 24 21 20 22 23 22 22 23 23 24 23 22 23 23 22 20 19 19 19 19 20 20 21 21 22 23 23 24 25 26 27 28 29 31 32 33 33 33 34 34 34 34 34 34 34 35 35 35 35 35 35 35 36 36 36 36 36 36 36 35 32 30 29 29 29 29 28 28 29 29
8 7 7 6 6 7 5 4 5 6 5 3 3 2 3 5 4 4 4 5 6 7 10 13 14 18 22 21 20 19 19 21 22 22 23 24 24 23 22 22 21 20 18 18 19 19 20 20 20 21 22 22 23 23 25 26 27 28 29 30 31 32 33 34 34 35 35 35 35 35 34 35 35 35 35 35 35 35 35 35 36 36 36 35 35 35 35 34 32 30 29 29 29 28 29 29 29
6 6 5 5 5 5 6 7 9 9 7 7 7 4 4 7 6 5 5 6 5 5 6 5 6 10 16 19 18 17 18 19 21 21 21 22 22 21 21 20 19 18 18 19 20 20 20 20 21 21 21 22 23 25 26 28 29 30 30 31 32 33 34 35 35 36 36 36 35 35 35 35 35 35 34 34 34 34 34 34 34 34 34 34 33 33 33 33 32 31 29 28 28 28 28 28 28
4 4 3 4 4 4 6 8 9 6 4 5 6 5 2 5 7 6 5 6 5 4 3 2 2 2 4 11 13 14 14 15 16 17 18 18 19 19 19 18 17 17 19 20 21 21 21 21 21 22 23 24 25 26 27 28 29 30 31 33 34 35 35 36 37 37 37 37 36 36 36 35 35 35 34 33 33 33 33 32 32 32 31 31 30 30 29 29 30 29 28 27 26 26 26 26 26
3 3 2 3 5 5 5 7 6 3 3 5 6 5 3 4 6 6 6 5 4 3 3 3 3 4 5 6 8 8 8 8 9 11 12 13 15 16 16 16 17 18 20 21 22 22 22 22 23 24 25 26 27 27 28 29 30 30 30 32 33 34 36 37 37 37 37 37 37 37 36 36 35 35 34 33 32 32 32 31 30 30 29 28 28 27 27 27 27 27 27 25 24 23 24 24 25
2 1 2 3 4 4 4 4 5 4 4 4 5 5 4 4 6 7 7 5 3 2 3 4 4 3 1 3 5 6 6 6 6 8 10 11 13 14 15 16 17 18 20 21 22 22 21 22 24 25 26 26 27 27 27 27 26 26 26 27 28 29 30 31 32 33 34 34 34 34 35 34 34 33 33 32 32 31 31 30 30 29 28 27 26 26 26 26 26 25 25 24 23 23 23 23 23
2 2 2 3 3 4 3 3 3 3 3 3 3 4 4 2 5 7 6 5 3 2 3 3 4 5 4 3 4 4 5 6 8 9 10 11 12 13 14 15 16 18 20 20 21 21 21 22 23 23 24 24 24 23 22 22 21 21 22 22 22 23 24 25 25 26 27 28 29 30 30 30 30 30 30 30 30 30 30 29 29 28 28 27 26 26 26 25 25 24 24 23 23 23 23 23 23
2 3 3 4 4 4 3 3 2 1 1 2 2 3 4 3 4 5 5 5 5 4 4 3 2 3 4 4 4 6 6 7 9 9 10 11 11 12 12 13 15 17 19 19 19 19 19 20 20 20 19 19 19 19 19 19 19 19 19 19 20 20 21 22 22 23 24 24 26 27 27 28 28 28 28 28 28 28 28 29 28 28 28 27 27 26 26 26 25 25 25 24 24 24 23 23 23
2 2 3 3 3 3 2 1 1 1 1 2 1 1 2 2 4 5 6 7 7 7 5 3 1 0 1 2 4 6 7 7 9 9 10 10 10 10 11 11 13 15 16 17 17 17 17 18 18 17 17 17 17 18 18 18 19 19 19 19 19 19 20 21 22 23 23 24 25 26 27 28 29 29 29 29 29 29 29 28 28 28 28 28 27 27 27 26 26 27 26 25 25 25 24 23 23
2 2 3 1 2 2 2 3 3 3 3 4 3 3 3 4 5 5 6 7 7 6 4 2 0 1 2 3 3 4 5 6 7 8 9 9 10 10 11 12 13 14 15 16 16 16 17 18 18 17 17 18 19 19 19 19 19 19 19 20 20 20 21 22 23 23 24 26 26 27 28 29 29 30 30 30 30 29 29 29 29 29 29 29 28 28 27 27 27 27 27 27 26 26 25 24 24
2 2 1 1 3 4 4 4 4 4 5 6 5 4 4 4 5 5 6 7 7 6 4 3 3 3 3 3 4 4 5 5 6 7 8 9 9 10 11 13 14 15 16 16 16 16 17 18 19 19 19 19 21 21 20 20 21 20 20 20 20 20 21 22 23 24 25 26 27 28 28 28 29 29 29 29 29 29 29 29 29 30 30 30 29 29 28 28 27 27 27 27 27 27 26 25 25
3 2 2 2 3 5 5 4 4 4 5 5 4 5 5 4 5 7 8 7 7 7 6 6 5 5 5 5 5 6 6 6 6 7 8 9 10 11 12 14 15 16 16 17 17 17 18 20 20 20 21 21 22 21 21 21 22 21 20 20 20 20 20 21 22 22 23 24 25 26 27 27 27 27 28 28 28 28 28 28 28 28 29 29 30 30 30 29 28 27 27 26 27 27 26 26 26
4 3 3 3 4 5 5 5 5 5 5 5 5 6 6 6 7 8 8 8 8 7 7 7 7 7 7 7 7 8 8 8 9 9 10 11 12 12 13 15 16 17 17 18 18 18 20 21 21 22 22 22 22 22 21 22 23 22 21 20 20 20 20 20 21 21 21 21 22 22 23 24 25 25 26 26 26 27 27 27 27 27 27 27 28 29 29 29 29 28 27 27 27 26 26 27 27
5 4 5 5 5 6 7 7 6 6 6 6 6 7 7 8 8 8 9 9 9 8 9 9 10 10 10 10 10 10 10 11 11 11 12 13 14 15 15 16 17 18 18 19 19 19 21 21 22 23 23 23 23 22 22 23 23 23 22 21 20 20 20 20 20 20 20 20 20 20 21 21 22 22 23 23 24 24 25 25 26 25 25 25 24 25 27 28 28 28 28 27 27 26 26 26 26
7 6 6 7 7 7 8 9 8 8 8 7 7 8 8 8 9 10 10 11 10 10 10 11 12 12 12 12 12 12 13 13 13 14 14 15 16 17 17 18 19 20 20 20 20 20 22 22 23 24 25 24 24 23 22 23 24 23 23 22 21 20 20 20 20 20 19 19 19 19 19 19 19 20 20 20 20 21 22 23 23 24 23 23 22 22 23 24 25 26 26 26 26 26 26 25 25
9 9 9 8 8 8 10 10 10 10 10 9 8 8 8 9 11 12 12 12 12 12 12 13 13 14 13 13 13 14 14 14 15 16 16 17 17 18 19 19 20 21 22 22 21 21 22 23 23 24 25 25 25 24 23 23 24 24 23 23 21 21 20 20 20 20 19 18 18 18 18 18 17 17 18 17 18 18 19 20 20 20 20 20 19 19 19 20 21 22 23 23 24 24 24 24 25
11 11 11 10 10 11 12 12 12 12 12 11 11 10 10 12 13 14 15 15 15 15 14 15 16 16 16 15 16 16 16 16 16 17 17 18 19 19 20 20 21 21 22 22 23 23 23 23 24 25 26 26 26 25 24 24 24 24 24 23 22 21 20 20 19 19 19 18 17 18 18 17 16 16 17 16 15 16 16 16 16 16 16 16 15 15 15 16 17 18 19 20 21 22 22 22 23
13 12 12 12 12 13 14 14 14 14 14 14 13 12 13 15 16 15 17 17 17 17 17 17 18 18 18 18 18 18 18 18 17 18 19 20 21 21 21 22 22 22 22 23 23 23 23 23 24 25 25 26 26 26 25 25 25 25 24 23 22 21 20 19 19 19 19 18 17 17 17 16 15 16 16 15 14 14 14 14 13 12 12 12 12 11 12 13 14 15 16 17 18 18 19 19 19
14 13 13 13 14 14 15 15 14 15 15 15 15 13 14 17 17 17 17 18 18 18 18 19 19 20 20 20 21 21 21 21 20 20 20 21 23 23 23 23 22 22 21 22 22 23 23 23 24 24 24 25 26 26 25 25 25 25 25 24 22 21 20 19 18 19 19 18 17 17 17 15 15 15 15 15 14 13 13 11 10 10 9 9 9 9 9 10 11 12 13 13 14 14 15 15 16
Wind_Direction
279 275 270 264 261 259 262 259 251 250 246 249 249 249 250 249 254 256 255 252 258 261 259 264 267 269 275 279 285 284 281 287 295 299 293 291 296 290 273 269 279 291 296 300 308 299 254 260 241 203 184 181 190 207 218 219 219 219 214 211 211 211 211 214 216 215 212 209 210 211 211 211 213 214 214 214 214 215 219 222 223 223 223 225 228 233 235 233 228 220 213 211 209 202 193 187 190
280 276 269 260 255 252 253 245 239 246 244 247 249 247 251 255 252 247 250 252 253 258 261 267 266 271 277 278 281 272 269 282 290 288 264 252 270 283 269 269 280 297 306 305 312 296 266 279 201 177 159 158 179 196 204 211 214 217 214 210 212 215 218 219 218 216 214 212 211 214 215 217 218 217 215 214 215 215 219 224 227 229 230 229 230 234 237 235 229 221 213 211 212 211 210 210 214
281 277 271 261 253 246 245 243 237 242 240 243 248 246 249 252 247 242 250 251 251 259 262 264 265 274 283 278 266 236 239 259 261 266 248 240 259 273 266 278 293 315 335 327 317 288 253 231 183 169 144 119 180 199 201 208 210 212 213 211 210 214 219 222 222 218 216 213 212 214 216 219 219 218 219 221 221 218 219 225 229 231 231 231 231 235 239 237 232 224 215 213 216 219 219 219 222
281 279 273 262 256 245 242 243 239 239 238 241 246 250 246 246 245 239 249 252 253 261 258 256 244 233 267 271 249 224 226 223 213 240 250 243 261 292 311 312 314 331 349 344 330 271 218 195 192 196 209 315 261 218 206 208 209 210 213 213 210 211 216 221 225 223 220 216 216 218 220 222 222 222 221 224 228 226 226 229 233 235 235 235 234 235 241 241 233 224 218 216 218 221 222 221 226
280 278 271 260 254 247 244 243 243 237 238 239 232 248 247 240 244 239 246 252 249 250 237 214 172 168 157 151 209 238 241 230 223 274 286 264 277 327 339 328 323 330 344 345 340 267 216 180 191 227 232 239 246 229 209 205 206 210 214 214 211 209 211 217 223 226 226 224 224 225 228 231 235 231 222 223 232 235 234 234 235 236 238 240 240 239 244 246 237 227 222 221 219 220 221 222 227
270 269 264 256 251 250 248 243 244 235 235 232 216 236 247 239 244 240 242 241 222 201 177 181 164 163 158 150 165 217 239 233 239 282 322 343 353 353 343 336 330 323 321 312 299 273 241 169 169 196 194 192 206 211 204 200 201 210 215 217 216 213 210 211 217 224 227 228 229 232 236 241 246 240 231 230 234 239 239 237 237 237 237 238 240 241 244 245 240 232 227 223 218 217 220 224 227
254 255 254 253 252 247 247 243 243 240 237 231 223 237 246 240 241 234 234 216 189 173 185 189 173 166 157 156 169 204 234 242 246 276 330 15 11 353 336 330 329 321 315 305 300 280 258 160 141 157 160 186 192 186 192 197 203 209 212 214 214 214 215 213 214 219 225 230 233 235 240 246 250 246 239 237 236 240 242 241 241 241 241 240 239 240 242 245 244 238 231 225 221 219 222 228 235
245 247 246 247 252 245 245 245 241 244 241 232 232 238 241 239 231 221 214 190 179 183 196 203 194 185 165 164 146 225 253 307 284 307 350 13 1 346 330 323 330 329 320 317 323 292 269 308 20 120 176 202 191 182 189 198 205 208 208 209 206 209 216 215 215 219 224 230 234 236 240 245 252 251 241 238 238 240 243 245 246 247 247 247 245 243 243 244 245 242 237 233 229 227 229 234 241
244 245 241 241 249 245 244 245 242 245 243 236 235 238 239 229 210 203 189 179 186 192 196 208 213 210 190 168 46 279 285 301 300 332 352 0 349 343 335 331 330 327 325 324 325 310 289 302 339 350 244 229 209 203 211 209 206 204 205 208 205 204 210 213 213 216 221 227 233 237 241 245 248 250 247 243 244 245 246 247 248 249 250 250 249 248 246 245 244 243 241 240 237 235 236 239 244
247 246 242 238 244 245 244 244 245 248 245 240 239 238 230 200 189 186 181 183 190 193 194 205 220 225 228 215 305 285 304 301 303 329 344 351 343 340 341 338 331 326 326 327 328 331 319 304 320 323 276 247 224 225 225 213 205 202 201 201 200 197 198 205 208 210 216 224 233 239 243 246 246 246 247 247 248 249 249 247 247 247 247 248 248 248 247 247 245 242 242 244 244 241 241 242 244
248 245 244 239 240 242 242 243 247 250 249 247 243 229 200 185 181 181 187 188 188 195 199 206 220 229 238 251 262 274 288 292 303 315 336 346 337 340 343 338 334 333 324 325 352 345 314 299 305 307 281 249 229 231 225 213 205 201 196 188 188 191 194 198 202 205 208 217 228 238 244 248 249 245 243 245 244 243 243 243 243 244 242 243 244 246 247 247 247 244 243 244 247 247 245 243 242
246 244 244 240 239 240 239 244 249 252 251 249 238 203 183 182 181 187 193 189 186 194 198 205 217 225 235 255 261 264 274 287 297 307 324 313 303 333 344 339 337 341 335 331 0 352 321 299 305 309 280 251 240 230 216 211 204 200 197 195 195 194 195 196 198 202 199 205 218 232 238 242 248 243 239 241 240 234 232 233 234 236 238 240 243 247 248 249 250 249 246 244 247 250 249 245 241
245 244 245 243 241 241 241 245 250 252 249 244 224 186 181 184 184 189 189 183 181 184 191 205 220 228 237 259 276 272 277 286 291 300 307 290 293 324 337 344 346 347 350 342 304 322 326 302 301 294 268 246 244 231 210 206 199 198 203 206 208 198 190 192 194 198 194 195 208 219 225 228 237 234 233 236 238 234 227 227 228 232 235 240 246 251 254 253 253 253 251 249 250 253 253 251 247
244 242 243 245 242 241 242 243 245 245 238 235 213 182 180 183 184 184 181 178 178 181 192 212 223 230 245 268 297 289 284 284 286 297 298 292 304 327 345 357 0 355 360 351 313 310 314 297 286 272 250 235 238 224 199 199 200 201 206 204 204 197 186 186 188 190 191 192 200 210 215 219 224 222 226 230 234 234 228 226 226 231 236 242 247 252 257 258 257 256 254 253 253 254 253 251 247
242 240 242 244 241 240 240 238 238 233 226 225 201 182 178 176 181 181 178 179 179 191 207 224 231 241 262 281 300 291 286 283 288 306 308 294 303 326 11 15 14 13 14 357 322 290 285 280 269 255 243 234 224 209 193 198 204 200 204 203 203 202 187 181 182 186 190 191 196 206 211 211 222 223 223 225 228 228 227 225 223 227 233 239 244 248 253 257 258 255 252 249 248 248 247 245 240
240 238 241 241 238 239 238 236 230 220 216 210 189 185 184 175 177 180 182 187 193 213 230 243 253 261 274 287 296 294 288 288 298 318 329 308 300 329 26 49 38 27 26 359 320 272 273 269 256 246 237 217 197 204 204 203 199 193 204 210 208 205 192 184 182 186 190 190 192 200 211 212 219 216 213 220 224 223 222 223 223 226 232 236 238 242 250 255 253 249 246 241 236 236 238 240 238
237 235 237 237 236 234 232 229 220 214 211 201 188 188 189 185 186 189 194 204 216 234 245 252 260 266 279 289 294 295 289 293 307 318 334 330 305 330 11 63 65 41 38 16 338 278 272 270 260 242 220 198 192 212 212 197 190 188 203 207 202 201 194 190 187 188 192 194 196 200 210 214 215 209 201 205 211 216 218 221 221 223 227 229 227 230 241 246 242 237 235 230 225 227 232 235 238
235 232 233 233 231 229 228 225 219 219 214 201 192 191 192 196 201 206 211 220 230 241 248 253 259 267 282 289 290 292 290 295 305 315 340 345 327 334 336 74 88 36 26 15 357 318 283 277 264 239 214 198 194 207 199 187 185 185 194 194 193 196 193 194 193 195 198 202 206 208 213 215 215 212 206 201 198 205 210 211 212 215 216 216 214 215 223 230 230 229 228 226 225 228 233 238 241
233 231 229 228 228 231 232 227 221 220 214 204 197 196 197 201 209 217 222 227 235 243 250 258 266 273 281 285 289 291 289 290 297 314 343 356 358 322 243 69 62 344 346 349 353 342 302 279 251 223 210 200 192 193 191 185 184 186 190 191 193 194 195 198 199 202 208 213 217 219 222 223 222 219 216 212 206 204 204 201 200 204 210 210 208 208 214 219 224 229 229 229 229 231 234 238 239
233 230 227 228 230 233 232 225 221 220 213 204 200 202 202 205 213 222 227 232 238 244 252 261 266 271 280 285 292 294 293 293 300 320 344 355 5 0 334 17 331 328 333 330 342 344 314 277 221 203 201 197 190 190 190 184 182 187 190 195 197 197 201 203 204 208 215 221 226 230 232 231 229 229 227 225 220 215 213 209 199 198 208 214 211 210 212 214 218 225 228 228 227 225 226 231 234
235 231 229 230 230 229 228 223 221 222 215 208 207 208 207 210 218 225 232 235 238 245 252 256 259 267 280 287 292 294 295 302 308 316 336 344 353 355 337 326 318 319 325 323 333 339 313 286 185 199 203 200 194 193 189 181 180 186 191 196 199 201 205 208 210 214 221 226 232 237 240 238 234 234 234 233 231 226 224 222 211 207 211 214 214 214 214 214 217 222 226 227 226 223 221 226 232
237 236 236 235 234 231 230 224 220 221 218 214 214 212 211 214 221 227 232 235 236 242 249 252 257 267 279 284 286 286 288 299 302 299 315 330 334 336 316 296 300 298 305 314 323 336 306 239 173 186 196 190 186 186 183 180 183 189 193 198 200 205 209 213 217 221 227 232 238 242 244 243 240 239 240 239 238 235 233 230 226 222 219 217 217 219 220 220 221 223 226 229 231 230 228 229 233
238 239 240 240 240 238 233 226 221 220 218 215 215 216 215 216 221 224 228 231 234 239 245 252 259 266 273 280 284 281 276 283 295 292 299 313 313 306 293 277 278 283 289 303 313 334 308 245 171 163 169 170 174 177 179 185 188 190 193 198 204 211 214 219 224 228 232 235 238 242 244 245 243 243 244 244 243 241 239 238 236 235 232 228 224 223 224 224 225 226 228 231 235 237 237 236 236
238 239 240 242 242 239 233 227 222 220 218 216 216 218 218 218 220 222 226 229 232 237 246 255 260 263 267 275 281 278 270 274 291 297 296 296 295 285 280 279 276 275 279 292 310 316 348 160 145 159 169 171 174 177 180 184 185 189 196 201 209 215 220 224 228 232 235 237 238 240 242 244 244 244 243 243 244 244 243 242 243 244 244 241 235 231 230 230 230 229 229 231 235 240 244 244 243
235 238 240 243 241 236 231 225 223 219 217 218 218 218 219 220 221 223 227 230 232 238 248 255 257 258 265 272 278 279 273 273 282 291 291 284 278 275 276 280 276 265 270 278 292 295 147 164 186 181 182 178 179 183 187 188 189 195 201 207 213 217 222 226 231 234 236 239 239 240 242 242 243 244 243 241 242 244 244 245 247 249 250 247 242 239 238 240 240 238 235 234 237 242 247 250 251
234 236 239 242 239 235 229 223 220 216 214 217 220 220 219 220 224 227 229 230 233 239 247 252 254 259 267 273 278 281 277 273 277 281 280 273 267 271 273 271 266 259 259 262 265 259 188 199 212 200 196 195 199 205 205 204 204 206 210 213 217 220 225 230 235 237 239 241 241 241 241 242 243 243 244 243 243 244 246 246 248 252 253 252 247 243 243 245 247 248 247 246 247 250 251 252 253
237 239 241 243 240 235 229 223 221 221 221 222 225 225 221 221 226 229 231 232 234 240 247 250 254 260 266 272 276 279 277 274 274 274 270 264 258 263 267 264 260 255 250 245 239 229 210 215 215 205 203 202 207 213 215 217 216 216 217 219 222 225 229 234 237 239 241 241 241 241 242 242 242 241 241 243 244 246 249 251 251 252 254 255 254 250 248 248 250 251 253 254 255 256 255 254 254
236 244 248 248 245 239 232 227 226 229 231 230 232 235 234 231 229 230 234 237 238 242 247 251 255 261 265 271 275 275 275 275 273 271 264 257 252 253 258 258 255 253 245 227 225 221 216 218 216 216 216 213 215 217 218 220 221 223 224 224 226 227 231 236 239 240 240 240 240 240 240 241 240 239 239 241 245 249 253 255 256 255 254 255 255 254 253 252 253 254 255 257 258 258 258 258 258
227 246 251 250 247 241 236 232 231 234 238 242 245 247 250 247 239 234 236 241 243 245 247 252 257 263 268 272 274 273 270 270 267 265 259 250 248 247 248 252 251 251 240 222 225 222 219 222 219 220 224 223 223 222 222 222 224 228 230 230 228 228 232 237 240 240 240 239 237 237 238 238 238 238 239 241 248 256 260 260 259 259 258 257 256 256 255 255 257 258 259 260 260 260 261 262 262
223 238 245 247 247 243 240 237 237 238 241 248 251 248 249 248 243 238 238 242 246 248 251 255 261 266 268 269 271 270 265 260 252 251 252 246 243 241 242 245 246 245 237 224 222 218 221 226 223 221 222 223 222 221 225 228 230 233 235 235 234 234 238 241 240 240 239 238 236 236 237 239 240 239 240 244 254 266 270 267 264 262 260 260 259 259 259 259 261 263 264 263 263 263 264 265 265
228 235 242 242 241 244 247 244 243 243 242 245 246 245 246 245 243 241 240 243 246 250 253 257 262 266 267 267 266 264 258 250 241 239 245 245 239 236 237 238 240 240 233 228 225 221 225 229 230 229 226 224 224 224 228 232 234 236 237 238 238 240 242 243 241 239 239 239 238 239 241 244 244 244 245 251 260 270 272 270 268 265 263 262 261 261 262 262 264 266 266 266 266 266 267 267 268
237 241 246 240 235 245 253 253 255 255 252 253 251 248 248 247 246 245 243 245 248 250 255 258 262 266 266 264 262 258 251 244 238 235 238 241 235 230 230 231 234 233 230 232 233 230 230 232 235 237 237 235 234 234 235 237 238 239 240 241 242 243 244 243 242 241 241 243 244 245 246 248 248 250 253 257 263 268 269 269 268 266 265 263 262 263 263 264 265 266 266 267 267 268 269 269 270
247 246 255 249 239 242 249 255 260 263 260 261 262 256 252 250 251 252 252 252 253 254 256 257 258 260 261 260 257 254 249 242 241 241 239 239 233 225 224 226 226 229 233 238 240 239 235 233 236 240 242 243 242 241 241 241 243 245 246 246 247 248 248 247 247 247 246 247 248 249 249 250 254 258 261 263 265 267 267 267 266 265 264 263 263 263 264 265 266 267 268 268 268 269 269 270 270
250 247 262 268 261 248 243 251 254 259 260 258 262 262 257 258 260 261 262 261 259 257 254 252 249 251 255 256 255 253 250 244 242 242 242 244 237 227 224 223 222 224 228 233 237 241 239 235 235 238 241 244 245 245 245 245 246 248 250 251 252 253 253 253 254 254 254 253 253 253 253 255 260 264 267 268 269 269 268 267 266 265 264 264 263 264 265 266 267 269 270 271 272 272 272 272 272
303 270 264 272 277 266 248 253 254 251 253 252 256 263 264 266 266 265 268 270 268 265 259 251 248 249 251 253 253 252 249 244 238 233 232 234 234 236 235 226 223 226 226 231 239 242 241 238 236 237 240 243 247 249 251 252 253 253 253 255 256 258 259 259 259 259 259 258 257 257 258 260 263 265 267 268 269 270 269 268 267 266 266 266 266 266 267 268 269 270 272 273 274 274 275 275 276
11 2 343 277 280 282 266 258 257 254 253 254 255 259 264 267 270 271 271 271 271 270 264 254 249 248 249 249 249 248 246 244 236 226 225 224 222 233 237 226 224 230 233 238 242 243 243 242 241 242 244 247 250 253 256 258 258 259 260 260 261 262 264 264 264 263 262 261 261 262 262 264 265 266 266 266 267 269 270 270 269 268 267 267 268 270 271 272 273 273 274 275 275 275 276 277 279
46 47 39 5 298 295 290 266 259 262 260 260 259 259 265 271 275 276 274 273 271 267 261 252 248 246 247 247 245 244 243 243 236 224 223 222 219 220 224 228 233 234 238 242 243 244 244 246 247 249 250 252 253 255 258 260 262 264 265 266 266 266 265 265 266 266 265 265 264 265 265 266 267 267 267 267 267 268 270 270 270 270 269 269 270 272 274 275 276 276 277 277 277 277 277 278 279
62 59 39 9 348 325 315 292 272 271 265 264 266 267 269 271 272 273 274 272 267 261 256 250 247 246 246 245 243 241 240 241 236 226 222 224 223 219 220 235 244 239 239 244 245 246 248 250 252 253 255 256 257 259 261 263 266 268 269 269 268 268 267 267 267 267 267 267 267 267 267 267 268 268 268 269 268 269 270 271 271 271 271 271 272 273 275 277 279 280 280 280 281 280 280 280 280
56 48 42 20 356 349 351 345 319 291 271 264 262 262 263 265 269 273 273 268 261 256 252 249 248 248 247 246 243 239 236 237 234 227 225 225 225 224 227 240 244 241 243 248 249 250 251 253 254 256 258 260 262 264 266 267 268 269 270 270 271 271 271 271 271 270 269 269 268 268 268 268 268 269 269 269 269 269 270 271 272 272 273 273 273 274 275 277 279 281 282 282 282 283 284 283 284
44 33 35 40 3 358 11 14 29 85 123 221 227 246 267 275 279 279 274 267 263 258 255 253 250 247 244 243 242 237 233 232 229 226 227 225 225 232 239 244 246 247 249 251 250 250 250 253 255 258 262 264 267 269 269 270 269 269 269 270 271 272 273 274 274 274 274 273 272 272 271 271 271 271 271 271 271 271 272 272 273 274 275 275 275 275 276 277 278 279 280 282 283 284 284 285 285
38 30 25 32 13 15 38 52 76 80 67 59 69 50 333 329 331 314 312 303 284 271 266 262 254 244 237 235 235 232 227 225 224 223 225 227 231 240 247 250 252 252 251 248 246 248 252 256 260 263 266 268 270 270 271 271 271 271 272 272 272 273 274 275 275 275 276 276 276 276 277 276 276 276 276 276 275 275 275 275 275 275 276 277 277 277 278 278 278 278 279 281 282 284 284 285 286
31 30 18 15 14 39 53 53 61 54 31 24 47 58 312 328 356 0 1 358 339 307 288 274 265 249 233 228 229 223 214 215 220 223 227 233 240 246 249 251 251 249 247 247 249 254 258 262 265 267 268 269 270 271 271 272 273 274 275 275 275 275 274 274 274 275 275 276 277 278 278 279 279 280 281 281 280 280 279 278 278 278 277 277 277 278 279 280 280 280 279 280 282 284 285 286 286
37 26 2 1 19 49 50 48 57 47 351 356 40 69 279 319 348 353 359 1 351 336 338 10 12 346 206 204 209 209 205 207 217 225 231 237 244 247 249 250 250 250 252 254 257 260 262 265 266 266 268 269 270 271 273 274 276 277 279 279 279 278 278 277 276 276 276 276 277 278 279 280 281 282 283 284 283 282 281 280 280 280 279 278 278 278 279 280 281 282 281 280 281 282 284 285 286
48 23 346 359 26 48 44 44 57 45 348 357 15 25 6 341 336 341 350 351 350 341 352 12 23 46 89 143 166 179 186 194 212 226 234 241 246 250 252 253 253 254 255 257 259 261 262 264 265 266 268 270 272 275 277 279 281 282 283 283 283 282 281 280 279 278 278 278 279 279 280 281 282 282 283 284 284 283 282 281 280 279 278 277 277 278 279 280 281 283 283 283 282 282 282 283 283
50 33 17 16 30 51 53 45 41 24 7 358 348 345 357 350 325 338 349 340 343 334 326 336 339 0 75 142 149 164 171 180 209 226 236 242 245 249 251 252 253 253 255 256 258 260 261 263 265 267 270 272 275 277 279 282 284 285 286 287 288 288 288 287 285 283 281 280 280 281 281 282 282 283 283 283 283 282 281 279 278 278 277 277 277 278 279 280 281 281 282 283 284 284 283 281 280
53 57 54 39 41 53 58 57 43 29 12 352 347 338 344 338 311 330 344 328 324 325 321 321 317 315 290 232 189 198 207 210 223 230 236 243 246 250 253 253 252 253 256 258 258 259 260 262 265 267 270 273 275 278 280 282 284 286 289 292 295 298 298 298 295 291 287 285 283 283 282 282 282 282 283 282 282 280 279 277 276 275 275 275 276 277 277 278 278 278 278 280 283 284 283 279 276
56 61 60 47 43 44 49 58 52 51 18 352 356 332 338 342 308 313 320 309 312 324 343 359 332 311 299 276 242 232 234 234 234 234 237 244 249 255 259 257 253 254 257 258 258 260 262 263 266 270 274 276 277 279 281 282 285 288 292 296 299 301 303 302 299 296 292 288 286 284 283 282 281 281 280 279 278 277 275 274 272 271 271 271 272 273 274 274 274 274 274 277 279 280 281 278 273
99 77 65 48 26 18 25 27 336 307 313 304 256 259 300 301 283 289 288 287 296 305 324 4 39 161 232 250 249 243 239 236 235 236 239 244 253 261 266 266 261 258 259 261 266 272 274 272 274 278 281 281 282 282 283 285 287 290 293 295 297 299 299 299 297 295 292 290 288 286 285 284 283 282 281 279 277 274 272 270 269 268 267 267 268 269 271 271 272 272 273 274 276 277 279 277 272
132 105 75 35 311 311 293 281 298 314 301 281 259 238 245 258 262 267 271 269 272 276 288 312 336 162 169 177 199 221 228 231 234 240 246 252 260 268 272 273 271 270 270 272 277 282 282 280 281 283 283 284 283 282 284 287 288 289 292 293 294 296 296 296 295 294 293 291 290 288 286 285 284 283 282 280 278 276 273 270 267 266 264 264 264 265 267 269 270 271 272 273 273 274 276 276 273
200 157 118 285 293 292 275 273 294 307 293 278 265 243 241 261 259 247 248 251 246 239 239 241 221 193 193 196 197 203 210 220 232 243 255 264 271 275 277 278 278 278 278 280 281 282 281 280 280 281 281 281 279 280 283 285 285 287 289 290 292 294 295 295 295 294 294 293 292 290 289 287 285 284 283 282 281 279 276 272 269 266 264 262 262 262 264 265 267 268 269 270 271 271 273 274 273
233 213 189 217 276 282 268 267 281 284 280 271 257 243 242 256 254 242 240 240 235 231 230 232 231 224 224 227 227 229 230 233 241 251 261 269 274 278 280 280 280 280 281 280 280 279 278 278 278 278 278 277 277 279 282 282 282 284 285 287 289 292 294 296 296 297 297 297 296 295 293 291 289 288 286 285 284 282 279 276 273 269 266 263 261 261 261 262 263 264 266 267 268 269 271 272 272
265 276 258 235 249 264 265 271 273 268 268 264 254 250 251 255 253 243 243 245 241 244 247 245 247 249 250 249 248 251 252 252 256 262 268 273 276 278 278 278 278 279 279 279 278 277 276 276 276 276 276 276 277 278 279 280 281 282 283 284 287 290 293 295 296 298 301 303 303 302 301 298 296 294 292 290 288 286 284 281 278 274 270 266 263 261 260 260 261 262 264 266 268 269 270 271 272
263 269 265 255 251 258 266 270 269 264 265 263 259 262 262 266 267 257 254 258 258 258 259 255 256 260 262 262 262 263 264 264 266 268 272 274 277 279 278 276 275 275 276 278 278 278 276 274 274 275 275 276 276 277 278 279 280 281 282 283 286 289 291 293 294 297 301 305 308 308 308 307 304 301 297 294 292 290 288 286 282 278 274 270 266 263 262 261 261 263 265 267 269 270 271 272 273
253 255 257 262 264 266 269 270 269 267 267 264 260 264 265 266 272 271 267 267 268 267 264 260 260 261 263 264 264 265 266 267 269 271 272 274 276 278 278 276 275 275 276 277 277 277 275 274 273 274 275 276 276 277 278 278 280 281 282 283 285 287 289 291 293 295 299 303 307 308 309 311 311 308 303 297 294 292 290 288 284 281 277 273 269 265 263 261 261 263 265 268 270 271 272 272 273
258 255 256 261 265 268 270 271 270 267 268 269 266 265 264 260 261 267 268 267 267 267 265 265 264 264 265 266 265 264 264 265 268 270 271 273 275 276 277 276 275 275 276 278 278 277 276 276 274 273 275 277 277 277 278 278 279 280 282 282 284 286 288 290 291 293 296 299 303 304 306 312 315 315 311 304 299 297 294 289 284 280 277 274 271 267 263 261 260 261 263 266 268 269 271 272 273
268 270 271 268 264 261 263 267 269 271 270 270 268 264 264 263 260 260 262 262 263 262 261 262 264 265 265 265 264 263 262 263 266 269 272 274 275 275 274 274 274 275 276 277 278 276 276 277 275 274 276 278 279 278 277 276 276 278 279 280 282 284 286 288 290 291 293 295 299 301 304 311 315 317 319 315 308 306 303 294 285 280 275 273 270 266 262 258 256 256 258 261 263 266 268 269 270
265 272 276 277 274 270 270 271 272 273 271 269 266 260 260 265 264 259 258 258 259 260 260 260 260 261 261 262 264 263 262 262 263 267 271 273 275 276 276 275 274 274 275 275 275 275 277 278 277 277 277 278 280 280 277 274 273 275 277 278 279 281 284 286 289 290 290 291 295 297 302 309 314 317 322 324 321 317 312 301 286 280 276 271 268 264 259 255 252 251 253 256 259 261 264 267 269
261 263 265 269 272 273 276 277 277 276 273 271 269 261 260 267 267 261 260 262 262 261 261 261 261 261 260 260 261 262 264 265 265 267 269 271 275 278 279 278 276 273 272 272 273 275 276 278 280 279 278 277 279 281 280 276 272 271 273 275 277 279 281 284 286 287 288 288 289 292 298 307 312 316 322 328 331 329 322 308 288 279 277 272 268 263 257 252 250 250 252 254 258 261 265 269 271